LPA727 VIDP-UGTB

Flight info

Callsign LPA727
Flight time 4h 20m
Altitude 36000
Route OROTI7C OROTI DCT BUTOP DCT DI DCT LEMOD DCT RODAR DCT ADEKI DCT LAMUS LAMUS1A
Aircraft A320/M-SDE3FGHIRWY/LB1

Departure

Time 2026-04-27 11:53
Airport Indira Gandhi International Airport (VIDP)

Arrival

Time 2026-04-27 16:14
Airport Tbilisi International Airport (UGTB)
Time Latitude Longitude Altitude Speed Heading
2026-04-27 11:37 28.55011 77.09000 751 ft 0 kts 242°
2026-04-27 11:44 28.55015 77.09009 747 ft 2 kts 238°
2026-04-27 11:45 28.55023 77.09025 749 ft 2 kts 237°
2026-04-27 11:45 28.55029 77.09036 748 ft 2 kts 234°
2026-04-27 11:45 28.55044 77.09055 747 ft 2 kts 197°
2026-04-27 11:45 28.55059 77.09054 746 ft 1 kts 150°
2026-04-27 11:46 28.55062 77.09052 746 ft 0 kts 149°
2026-04-27 11:47 28.55047 77.09062 749 ft 5 kts 149°
2026-04-27 11:48 28.55008 77.09090 751 ft 9 kts 148°
2026-04-27 11:48 28.54953 77.09129 749 ft 8 kts 148°
2026-04-27 11:48 28.54897 77.09167 750 ft 10 kts 148°
2026-04-27 11:48 28.54845 77.09202 751 ft 9 kts 149°
2026-04-27 11:49 28.54799 77.09246 750 ft 9 kts 124°
2026-04-27 11:49 28.54771 77.09321 751 ft 12 kts 104°
2026-04-27 11:49 28.54747 77.09424 750 ft 15 kts 105°
2026-04-27 11:49 28.54718 77.09550 751 ft 18 kts 105°
2026-04-27 11:50 28.54683 77.09701 751 ft 20 kts 104°
2026-04-27 11:50 28.54654 77.09787 750 ft 9 kts 139°
2026-04-27 11:50 28.54598 77.09791 749 ft 10 kts 192°
2026-04-27 11:50 28.54506 77.09767 747 ft 14 kts 193°
2026-04-27 11:51 28.54418 77.09743 749 ft 10 kts 195°
2026-04-27 11:51 28.54399 77.09683 748 ft 9 kts 282°
2026-04-27 11:51 28.54401 77.09674 749 ft 0 kts 283°
2026-04-27 11:52 28.54409 77.09633 746 ft 27 kts 283°
2026-04-27 11:52 28.54517 77.09129 750 ft 102 kts 283°
2026-04-27 11:53 28.54737 77.08106 752 ft 161 kts 283°
2026-04-27 11:53 28.55015 77.06715 1002 ft 189 kts 283°
2026-04-27 11:53 28.55018 77.05224 1787 ft 192 kts 259°
2026-04-27 11:53 28.54713 77.03747 2655 ft 193 kts 258°
2026-04-27 11:54 28.54386 77.02247 2983 ft 202 kts 257°
2026-04-27 11:54 28.54033 77.00639 3103 ft 222 kts 257°
2026-04-27 11:54 28.53640 76.98830 3252 ft 245 kts 257°
2026-04-27 11:54 28.53219 76.96869 3611 ft 259 kts 257°
2026-04-27 11:55 28.52794 76.94867 4209 ft 262 kts 257°
2026-04-27 11:55 28.52367 76.92836 4819 ft 266 kts 257°
2026-04-27 11:55 28.51942 76.90809 5432 ft 268 kts 257°
2026-04-27 11:55 28.51507 76.88730 6033 ft 272 kts 258°
2026-04-27 11:56 28.51317 76.86607 6617 ft 273 kts 278°
2026-04-27 11:56 28.51721 76.84486 7202 ft 276 kts 284°
2026-04-27 11:56 28.52184 76.82362 7842 ft 277 kts 285°
2026-04-27 11:56 28.52653 76.80228 8491 ft 280 kts 285°
2026-04-27 11:57 28.53126 76.78072 9133 ft 282 kts 285°
2026-04-27 11:57 28.53599 76.75904 9769 ft 284 kts 285°
2026-04-27 11:57 28.54076 76.73714 10370 ft 286 kts 285°
2026-04-27 11:57 28.54641 76.71550 10964 ft 286 kts 294°
2026-04-27 11:58 28.55634 76.69541 11240 ft 301 kts 304°
2026-04-27 11:58 28.56882 76.67523 11358 ft 321 kts 305°
2026-04-27 11:58 28.58202 76.65400 11604 ft 334 kts 305°
2026-04-27 11:58 28.59549 76.63230 12094 ft 338 kts 305°
2026-04-27 11:59 28.60908 76.61029 12663 ft 341 kts 304°
2026-04-27 11:59 28.62277 76.58801 13233 ft 344 kts 304°
2026-04-27 11:59 28.63651 76.56563 13761 ft 346 kts 304°
2026-04-27 11:59 28.65037 76.54308 14256 ft 349 kts 304°
2026-04-27 12:00 28.66438 76.52035 14738 ft 352 kts 304°
2026-04-27 12:00 28.67847 76.49745 15230 ft 355 kts 304°
2026-04-27 12:00 28.69263 76.47436 15712 ft 358 kts 304°
2026-04-27 12:00 28.70691 76.45103 16193 ft 360 kts 304°
2026-04-27 12:01 28.72129 76.42752 16685 ft 363 kts 304°
2026-04-27 12:01 28.73581 76.40375 17156 ft 366 kts 304°
2026-04-27 12:01 28.75041 76.37986 17642 ft 369 kts 304°
2026-04-27 12:01 28.76496 76.35605 18084 ft 372 kts 304°
2026-04-27 12:02 28.77980 76.33177 18491 ft 375 kts 304°
2026-04-27 12:02 28.79475 76.30731 18909 ft 377 kts 304°
2026-04-27 12:02 28.80981 76.28266 19325 ft 380 kts 304°
2026-04-27 12:02 28.82497 76.25786 19743 ft 382 kts 304°
2026-04-27 12:03 28.84019 76.23286 20147 ft 385 kts 304°
2026-04-27 12:03 28.85553 76.20766 20564 ft 388 kts 304°
2026-04-27 12:03 28.87097 76.18226 20975 ft 391 kts 304°
2026-04-27 12:03 28.88648 76.15671 21382 ft 394 kts 303°
2026-04-27 12:04 28.90213 76.13094 21785 ft 396 kts 303°
2026-04-27 12:04 28.91793 76.10495 22176 ft 399 kts 303°
2026-04-27 12:04 28.93379 76.07884 22557 ft 402 kts 303°
2026-04-27 12:04 28.94459 76.06105 22817 ft 403 kts 303°
2026-04-27 12:05 28.96039 76.03497 23179 ft 406 kts 303°
2026-04-27 12:05 28.97649 76.00837 23501 ft 408 kts 303°
2026-04-27 12:05 28.99266 75.98169 23815 ft 410 kts 303°
2026-04-27 12:05 29.00890 75.95492 24130 ft 411 kts 303°
2026-04-27 12:06 29.02525 75.92796 24455 ft 413 kts 303°
2026-04-27 12:06 29.04158 75.90099 24762 ft 414 kts 303°
2026-04-27 12:06 29.05800 75.87383 25070 ft 416 kts 303°
2026-04-27 12:06 29.07443 75.84657 25381 ft 417 kts 303°
2026-04-27 12:07 29.09088 75.81923 25676 ft 418 kts 303°
2026-04-27 12:07 29.10743 75.79175 25978 ft 420 kts 303°
2026-04-27 12:07 29.12402 75.76423 26273 ft 421 kts 302°
2026-04-27 12:07 29.14067 75.73659 26570 ft 423 kts 302°
2026-04-27 12:08 29.15737 75.70883 26857 ft 424 kts 302°
2026-04-27 12:08 29.17415 75.68093 27152 ft 425 kts 302°
2026-04-27 12:08 29.19093 75.65301 27435 ft 427 kts 302°
2026-04-27 12:08 29.20774 75.62500 27712 ft 428 kts 302°
2026-04-27 12:09 29.22465 75.59683 27987 ft 429 kts 302°
2026-04-27 12:09 29.24161 75.56860 28264 ft 430 kts 302°
2026-04-27 12:09 29.25857 75.54027 28528 ft 431 kts 302°
2026-04-27 12:09 29.27554 75.51187 28786 ft 433 kts 302°
2026-04-27 12:10 29.29097 75.48240 29013 ft 432 kts 296°
2026-04-27 12:10 29.30498 75.45188 29257 ft 433 kts 296°
2026-04-27 12:10 29.31901 75.42131 29491 ft 434 kts 295°
2026-04-27 12:10 29.33392 75.39119 29703 ft 437 kts 301°
2026-04-27 12:11 29.35122 75.36241 29896 ft 438 kts 302°
2026-04-27 12:11 29.36856 75.33372 30159 ft 437 kts 302°
2026-04-27 12:11 29.38591 75.30509 30418 ft 436 kts 302°
2026-04-27 12:11 29.40297 75.27693 30665 ft 435 kts 302°
2026-04-27 12:12 29.42021 75.24837 30920 ft 435 kts 302°
2026-04-27 12:12 29.43739 75.21983 31159 ft 434 kts 302°
2026-04-27 12:12 29.45454 75.19129 31399 ft 434 kts 301°
2026-04-27 12:12 29.47164 75.16283 31645 ft 433 kts 301°
2026-04-27 12:13 29.48877 75.13434 31895 ft 433 kts 301°
2026-04-27 12:13 29.50589 75.10587 32111 ft 433 kts 301°
2026-04-27 12:13 29.52298 75.07744 32347 ft 432 kts 301°
2026-04-27 12:13 29.54005 75.04900 32578 ft 432 kts 301°
2026-04-27 12:14 29.55708 75.02061 32795 ft 432 kts 301°
2026-04-27 12:14 29.57413 74.99218 33020 ft 432 kts 301°
2026-04-27 12:14 29.59115 74.96375 33237 ft 432 kts 301°
2026-04-27 12:14 29.60815 74.93533 33454 ft 432 kts 301°
2026-04-27 12:15 29.62520 74.90683 33604 ft 432 kts 301°
2026-04-27 12:15 29.65902 74.85028 33631 ft 427 kts 301°
2026-04-27 12:16 29.69263 74.79396 33636 ft 427 kts 301°
2026-04-27 12:16 29.72627 74.73744 33828 ft 427 kts 301°
2026-04-27 12:16 29.74301 74.70934 34064 ft 427 kts 301°
2026-04-27 12:17 29.75961 74.68146 34182 ft 428 kts 301°
2026-04-27 12:17 29.77648 74.65313 34309 ft 430 kts 301°
2026-04-27 12:17 29.79336 74.62474 34470 ft 430 kts 301°
2026-04-27 12:17 29.81023 74.59632 34648 ft 429 kts 301°
2026-04-27 12:18 29.82706 74.56797 34826 ft 429 kts 300°
2026-04-27 12:18 29.84387 74.53961 34993 ft 428 kts 300°
2026-04-27 12:18 29.86060 74.51128 35162 ft 427 kts 300°
2026-04-27 12:18 29.87728 74.48295 35330 ft 427 kts 300°
2026-04-27 12:19 29.89398 74.45470 35493 ft 426 kts 300°
2026-04-27 12:19 29.91064 74.42652 35619 ft 426 kts 300°
2026-04-27 12:19 29.92732 74.39836 35636 ft 425 kts 300°
2026-04-27 12:20 29.96063 74.34198 35636 ft 425 kts 300°
2026-04-27 12:20 29.99395 74.28553 35639 ft 426 kts 300°
2026-04-27 12:21 30.02722 74.22892 35637 ft 426 kts 300°
2026-04-27 12:21 30.06047 74.17231 35643 ft 426 kts 300°
2026-04-27 12:22 30.09363 74.11568 35649 ft 426 kts 300°
2026-04-27 12:22 30.12692 74.05906 35657 ft 426 kts 300°
2026-04-27 12:23 30.16004 74.00239 35661 ft 425 kts 300°
2026-04-27 12:23 30.19288 73.94604 35660 ft 425 kts 300°
2026-04-27 12:24 30.22594 73.88946 35664 ft 424 kts 300°
2026-04-27 12:24 30.25893 73.83293 35665 ft 423 kts 300°
2026-04-27 12:25 30.29182 73.77645 35669 ft 423 kts 300°
2026-04-27 12:25 30.32465 73.72000 35660 ft 422 kts 300°
2026-04-27 12:26 30.35736 73.66352 35657 ft 422 kts 300°
2026-04-27 12:26 30.39002 73.60703 35655 ft 422 kts 300°
2026-04-27 12:27 30.42269 73.55056 35654 ft 422 kts 300°
2026-04-27 12:27 30.45535 73.49409 35655 ft 422 kts 300°
2026-04-27 12:28 30.48802 73.43758 35655 ft 422 kts 300°
2026-04-27 12:28 30.52062 73.38102 35655 ft 422 kts 300°
2026-04-27 12:29 30.55298 73.32472 35663 ft 422 kts 300°
2026-04-27 12:29 30.58570 73.26762 35664 ft 422 kts 300°
2026-04-27 12:30 30.61803 73.21126 35666 ft 422 kts 300°
2026-04-27 12:30 30.65060 73.15455 35666 ft 422 kts 300°
2026-04-27 12:31 30.68318 73.09780 35665 ft 422 kts 300°
2026-04-27 12:31 30.71554 73.04098 35667 ft 422 kts 300°
2026-04-27 12:32 30.74792 72.98408 35656 ft 424 kts 300°
2026-04-27 12:32 30.78071 72.92648 35652 ft 430 kts 300°
2026-04-27 12:33 30.81395 72.86810 35642 ft 435 kts 300°
2026-04-27 12:33 30.84748 72.80915 35645 ft 438 kts 300°
2026-04-27 12:34 30.88117 72.74973 35648 ft 441 kts 300°
2026-04-27 12:34 30.91497 72.69005 35653 ft 442 kts 300°
2026-04-27 12:35 30.94880 72.63004 35647 ft 443 kts 300°
2026-04-27 12:35 30.98254 72.57038 35644 ft 444 kts 300°
2026-04-27 12:36 31.01659 72.51018 35634 ft 445 kts 300°
2026-04-27 12:36 31.05054 72.44985 35622 ft 445 kts 300°
2026-04-27 12:37 31.08439 72.38944 35621 ft 445 kts 300°
2026-04-27 12:37 31.11823 72.32894 35620 ft 445 kts 300°
2026-04-27 12:38 31.15213 72.26843 35628 ft 444 kts 300°
2026-04-27 12:38 31.18597 72.20807 35634 ft 444 kts 300°
2026-04-27 12:39 31.21971 72.14769 35628 ft 444 kts 300°
2026-04-27 12:39 31.25319 72.08775 35626 ft 443 kts 300°
2026-04-27 12:40 31.28677 72.02731 35625 ft 443 kts 300°
2026-04-27 12:40 31.32028 71.96696 35619 ft 442 kts 300°
2026-04-27 12:41 31.35380 71.90666 35617 ft 442 kts 300°
2026-04-27 12:41 31.38728 71.84630 35610 ft 442 kts 300°
2026-04-27 12:42 31.42066 71.78586 35606 ft 442 kts 300°
2026-04-27 12:42 31.45398 71.72546 35611 ft 442 kts 300°
2026-04-27 12:43 31.48737 71.66500 35610 ft 442 kts 300°
2026-04-27 12:43 31.52070 71.60453 35608 ft 442 kts 300°
2026-04-27 12:44 31.55402 71.54398 35604 ft 442 kts 300°
2026-04-27 12:44 31.58732 71.48336 35599 ft 442 kts 300°
2026-04-27 12:45 31.62058 71.42263 35590 ft 443 kts 300°
2026-04-27 12:45 31.65382 71.36179 35598 ft 443 kts 300°
2026-04-27 12:46 31.68684 71.30126 35600 ft 443 kts 300°
2026-04-27 12:46 31.72008 71.24038 35598 ft 443 kts 300°
2026-04-27 12:47 31.75332 71.17938 35597 ft 443 kts 300°
2026-04-27 12:47 31.78648 71.11829 35590 ft 443 kts 300°
2026-04-27 12:48 31.81967 71.05714 35590 ft 443 kts 300°
2026-04-27 12:48 31.85291 70.99591 35580 ft 444 kts 300°
2026-04-27 12:49 31.88582 70.93512 35581 ft 444 kts 300°
2026-04-27 12:49 31.92010 70.87467 35569 ft 446 kts 306°
2026-04-27 12:50 31.95974 70.81834 35575 ft 447 kts 306°
2026-04-27 12:50 31.99954 70.76200 35576 ft 447 kts 306°
2026-04-27 12:51 32.03257 70.71507 35586 ft 447 kts 306°
2026-04-27 12:51 32.07222 70.65850 35583 ft 447 kts 306°
2026-04-27 12:52 32.11189 70.60184 35586 ft 447 kts 306°
2026-04-27 12:52 32.15155 70.54524 35586 ft 447 kts 306°
2026-04-27 12:53 32.21087 70.46013 35601 ft 447 kts 306°
2026-04-27 12:53 32.25034 70.40341 35613 ft 446 kts 306°
2026-04-27 12:54 32.28982 70.34677 35619 ft 446 kts 306°
2026-04-27 12:54 32.32901 70.29039 35630 ft 446 kts 306°
2026-04-27 12:55 32.36836 70.23353 35651 ft 447 kts 306°
2026-04-27 12:55 32.40769 70.17662 35664 ft 447 kts 306°
2026-04-27 12:56 32.44718 70.11955 35681 ft 447 kts 306°
2026-04-27 12:56 32.48655 70.06262 35696 ft 446 kts 306°
2026-04-27 12:57 32.52583 70.00566 35715 ft 446 kts 306°
2026-04-27 12:57 32.56505 69.94860 35727 ft 446 kts 305°
2026-04-27 12:58 32.60425 69.89148 35746 ft 446 kts 305°
2026-04-27 12:58 32.64324 69.83462 35757 ft 447 kts 305°
2026-04-27 12:59 32.68248 69.77734 35760 ft 447 kts 305°
2026-04-27 12:59 32.72169 69.71999 35772 ft 447 kts 305°
2026-04-27 13:00 32.76086 69.66265 35781 ft 447 kts 305°
2026-04-27 13:00 32.80004 69.60517 35788 ft 447 kts 305°
2026-04-27 13:01 32.83922 69.54762 35796 ft 448 kts 305°
2026-04-27 13:01 32.87835 69.49005 35801 ft 448 kts 305°
2026-04-27 13:02 32.91753 69.43237 35801 ft 448 kts 305°
2026-04-27 13:02 32.95667 69.37470 35810 ft 448 kts 305°
2026-04-27 13:03 32.99572 69.31688 35821 ft 448 kts 304°
2026-04-27 13:03 33.03474 69.25910 35829 ft 448 kts 305°
2026-04-27 13:04 33.07380 69.20115 35839 ft 448 kts 305°
2026-04-27 13:04 33.11286 69.14320 35841 ft 448 kts 305°
2026-04-27 13:05 33.15164 69.08561 35843 ft 448 kts 305°
2026-04-27 13:05 33.19083 69.02706 35846 ft 449 kts 304°
2026-04-27 13:06 33.22956 68.96927 35843 ft 449 kts 305°
2026-04-27 13:06 33.26862 68.91094 35838 ft 449 kts 305°
2026-04-27 13:07 33.30769 68.85250 35839 ft 450 kts 304°
2026-04-27 13:07 33.34668 68.79408 35831 ft 449 kts 304°
2026-04-27 13:08 33.38564 68.73557 35832 ft 450 kts 304°
2026-04-27 13:08 33.42456 68.67695 35837 ft 450 kts 304°
2026-04-27 13:09 33.46345 68.61829 35842 ft 450 kts 304°
2026-04-27 13:09 33.50236 68.55958 35850 ft 450 kts 304°
2026-04-27 13:10 33.54127 68.50083 35864 ft 450 kts 304°
2026-04-27 13:10 33.58013 68.44203 35877 ft 450 kts 304°
2026-04-27 13:11 33.61876 68.38344 35896 ft 450 kts 304°
2026-04-27 13:11 33.65766 68.32449 35908 ft 450 kts 304°
2026-04-27 13:12 33.69643 68.26551 35915 ft 450 kts 304°
2026-04-27 13:12 33.73521 68.20633 35931 ft 451 kts 304°
2026-04-27 13:13 33.77401 68.14706 35935 ft 451 kts 304°
2026-04-27 13:13 33.81278 68.08773 35942 ft 452 kts 304°
2026-04-27 13:14 33.85159 68.02836 35928 ft 451 kts 304°
2026-04-27 13:14 33.89044 67.96889 35940 ft 452 kts 304°
2026-04-27 13:15 33.92907 67.90959 35952 ft 453 kts 304°
2026-04-27 13:15 33.96796 67.84975 35959 ft 454 kts 304°
2026-04-27 13:16 34.00683 67.78986 35964 ft 454 kts 303°
2026-04-27 13:16 34.04575 67.72985 35965 ft 454 kts 303°
2026-04-27 13:17 34.08461 67.66971 35965 ft 455 kts 303°
2026-04-27 13:17 34.12347 67.60945 35974 ft 456 kts 303°
2026-04-27 13:18 34.16241 67.54902 35975 ft 456 kts 303°
2026-04-27 13:18 34.20127 67.48856 35976 ft 456 kts 303°
2026-04-27 13:19 34.24016 67.42797 35973 ft 457 kts 303°
2026-04-27 13:19 34.27918 67.36717 35976 ft 458 kts 303°
2026-04-27 13:20 34.31823 67.30617 35987 ft 459 kts 303°
2026-04-27 13:20 34.35731 67.24498 35987 ft 460 kts 303°
2026-04-27 13:21 34.39648 67.18367 35995 ft 461 kts 304°
2026-04-27 13:21 34.43576 67.12209 35996 ft 461 kts 303°
2026-04-27 13:22 34.47470 67.06089 36005 ft 462 kts 303°
2026-04-27 13:22 34.51380 66.99921 35998 ft 462 kts 303°
2026-04-27 13:23 34.55304 66.93732 35997 ft 462 kts 303°
2026-04-27 13:23 34.59219 66.87552 35995 ft 461 kts 303°
2026-04-27 13:24 34.63113 66.81372 35995 ft 460 kts 303°
2026-04-27 13:24 34.67010 66.75181 36002 ft 461 kts 303°
2026-04-27 13:25 34.70902 66.68992 36003 ft 460 kts 303°
2026-04-27 13:25 34.74789 66.62803 36004 ft 461 kts 303°
2026-04-27 13:26 34.78676 66.56599 36016 ft 461 kts 303°
2026-04-27 13:26 34.82549 66.50420 36027 ft 462 kts 303°
2026-04-27 13:27 34.86441 66.44205 36032 ft 462 kts 303°
2026-04-27 13:27 34.90323 66.37975 36032 ft 462 kts 303°
2026-04-27 13:28 34.94207 66.31747 36033 ft 461 kts 303°
2026-04-27 13:28 34.98072 66.25522 36023 ft 461 kts 303°
2026-04-27 13:29 35.01922 66.19306 36005 ft 459 kts 303°
2026-04-27 13:29 35.05773 66.13093 36005 ft 459 kts 303°
2026-04-27 13:30 35.09615 66.06880 36008 ft 459 kts 303°
2026-04-27 13:30 35.13461 66.00666 36003 ft 458 kts 303°
2026-04-27 13:31 35.17279 65.94455 36006 ft 460 kts 302°
2026-04-27 13:31 35.21116 65.88201 36010 ft 460 kts 302°
2026-04-27 13:32 35.24964 65.81929 36011 ft 461 kts 302°
2026-04-27 13:32 35.28812 65.75657 36009 ft 461 kts 303°
2026-04-27 13:33 35.32660 65.69370 36009 ft 461 kts 302°
2026-04-27 13:33 35.36497 65.63072 36013 ft 461 kts 302°
2026-04-27 13:34 35.40341 65.56759 36012 ft 462 kts 302°
2026-04-27 13:34 35.44196 65.50433 36006 ft 462 kts 302°
2026-04-27 13:35 35.48047 65.44107 36010 ft 463 kts 302°
2026-04-27 13:35 35.51863 65.37808 36006 ft 463 kts 302°
2026-04-27 13:36 35.55704 65.31448 36009 ft 464 kts 302°
2026-04-27 13:36 35.59559 65.25075 36007 ft 464 kts 302°
2026-04-27 13:37 35.62782 65.19731 36000 ft 464 kts 302°
2026-04-27 13:37 35.66620 65.13341 35993 ft 464 kts 302°
2026-04-27 13:38 35.70440 65.06980 35984 ft 464 kts 302°
2026-04-27 13:38 35.74274 65.00586 35975 ft 464 kts 302°
2026-04-27 13:39 35.78106 64.94187 35963 ft 464 kts 302°
2026-04-27 13:39 35.81936 64.87786 35952 ft 464 kts 302°
2026-04-27 13:40 35.85753 64.81378 35936 ft 463 kts 302°
2026-04-27 13:40 35.89563 64.74974 35927 ft 463 kts 301°
2026-04-27 13:41 35.93375 64.68555 35920 ft 463 kts 301°
2026-04-27 13:41 35.97175 64.62143 35913 ft 462 kts 301°
2026-04-27 13:42 36.00936 64.55786 35903 ft 461 kts 301°
2026-04-27 13:42 36.04719 64.49385 35892 ft 461 kts 301°
2026-04-27 13:43 36.08495 64.42990 35892 ft 460 kts 301°
2026-04-27 13:43 36.12257 64.36596 35890 ft 459 kts 301°
2026-04-27 13:44 36.16012 64.30202 35896 ft 459 kts 300°
2026-04-27 13:44 36.19054 64.23347 35898 ft 453 kts 293°
2026-04-27 13:45 36.21915 64.16382 35897 ft 453 kts 292°
2026-04-27 13:45 36.24772 64.09419 35902 ft 453 kts 292°
2026-04-27 13:46 36.27627 64.02451 35905 ft 453 kts 292°
2026-04-27 13:46 36.30475 63.95483 35904 ft 453 kts 292°
2026-04-27 13:47 36.33320 63.88508 35910 ft 453 kts 292°
2026-04-27 13:47 36.36165 63.81525 35909 ft 453 kts 292°
2026-04-27 13:48 36.39012 63.74544 35906 ft 454 kts 292°
2026-04-27 13:48 36.41849 63.67540 35907 ft 454 kts 292°
2026-04-27 13:49 36.44683 63.60530 35911 ft 454 kts 292°
2026-04-27 13:49 36.47506 63.53524 35914 ft 454 kts 292°
2026-04-27 13:50 36.50304 63.46557 35907 ft 453 kts 292°
2026-04-27 13:50 36.53122 63.39545 35909 ft 453 kts 293°
2026-04-27 13:51 36.55944 63.32533 35912 ft 453 kts 292°
2026-04-27 13:51 36.58753 63.25517 35908 ft 453 kts 292°
2026-04-27 13:52 36.61559 63.18487 35907 ft 453 kts 292°
2026-04-27 13:52 36.64361 63.11457 35904 ft 453 kts 292°
2026-04-27 13:53 36.68556 63.00901 35906 ft 453 kts 292°
2026-04-27 13:54 36.71350 62.93849 35906 ft 453 kts 292°
2026-04-27 13:54 36.74133 62.86797 35905 ft 453 kts 292°
2026-04-27 13:55 36.76911 62.79735 35902 ft 453 kts 292°
2026-04-27 13:55 36.79696 62.72679 35900 ft 453 kts 292°
2026-04-27 13:56 36.82473 62.65628 35901 ft 453 kts 292°
2026-04-27 13:56 36.85233 62.58562 35901 ft 453 kts 292°
2026-04-27 13:57 36.87975 62.51546 35897 ft 452 kts 292°
2026-04-27 13:57 36.90732 62.44481 35900 ft 452 kts 292°
2026-04-27 13:58 36.93479 62.37416 35905 ft 452 kts 292°
2026-04-27 13:58 36.96225 62.30338 35897 ft 452 kts 293°
2026-04-27 13:59 36.98968 62.23273 35898 ft 451 kts 292°
2026-04-27 13:59 37.01698 62.16203 35897 ft 451 kts 292°
2026-04-27 14:00 37.04421 62.09139 35891 ft 450 kts 293°
2026-04-27 14:00 37.07144 62.02074 35893 ft 450 kts 292°
2026-04-27 14:01 37.09852 61.95013 35895 ft 450 kts 293°
2026-04-27 14:01 37.12562 61.87945 35895 ft 450 kts 293°
2026-04-27 14:02 37.15267 61.80881 35893 ft 450 kts 293°
2026-04-27 14:02 37.17969 61.73799 35892 ft 451 kts 293°
2026-04-27 14:03 37.20668 61.66702 35892 ft 451 kts 293°
2026-04-27 14:03 37.23363 61.59590 35906 ft 451 kts 293°
2026-04-27 14:04 37.26058 61.52473 35902 ft 452 kts 293°
2026-04-27 14:04 37.28750 61.45346 35909 ft 452 kts 293°
2026-04-27 14:05 37.31442 61.38211 35906 ft 452 kts 293°
2026-04-27 14:05 37.34118 61.31122 35909 ft 452 kts 293°
2026-04-27 14:06 37.36798 61.23979 35904 ft 452 kts 293°
2026-04-27 14:06 37.39475 61.16824 35904 ft 452 kts 293°
2026-04-27 14:07 37.42152 61.09656 35903 ft 452 kts 293°
2026-04-27 14:07 37.44828 61.02483 35898 ft 452 kts 293°
2026-04-27 14:08 37.47498 60.95312 35900 ft 452 kts 293°
2026-04-27 14:08 37.50160 60.88129 35896 ft 452 kts 293°
2026-04-27 14:09 37.52816 60.80944 35894 ft 452 kts 293°
2026-04-27 14:09 37.55465 60.73767 35893 ft 452 kts 293°
2026-04-27 14:10 37.58118 60.66573 35889 ft 452 kts 293°
2026-04-27 14:10 37.60761 60.59379 35888 ft 452 kts 292°
2026-04-27 14:11 37.63397 60.52181 35887 ft 452 kts 293°
2026-04-27 14:11 37.66033 60.44981 35888 ft 452 kts 292°
2026-04-27 14:12 37.68657 60.37778 35884 ft 451 kts 292°
2026-04-27 14:12 37.71275 60.30586 35868 ft 450 kts 292°
2026-04-27 14:13 37.73870 60.23452 35853 ft 449 kts 292°
2026-04-27 14:13 37.76470 60.16276 35849 ft 449 kts 292°
2026-04-27 14:14 37.79064 60.09092 35847 ft 449 kts 292°
2026-04-27 14:14 37.81651 60.01912 35843 ft 449 kts 292°
2026-04-27 14:15 37.84234 59.94733 35843 ft 448 kts 292°
2026-04-27 14:15 37.86816 59.87547 35840 ft 448 kts 292°
2026-04-27 14:16 37.89386 59.80352 35842 ft 448 kts 292°
2026-04-27 14:16 37.91955 59.73149 35836 ft 448 kts 292°
2026-04-27 14:17 37.94522 59.65953 35844 ft 449 kts 292°
2026-04-27 14:17 37.97070 59.58786 35846 ft 449 kts 292°
2026-04-27 14:18 37.99634 59.51570 35832 ft 448 kts 292°
2026-04-27 14:18 38.02187 59.44361 35833 ft 448 kts 292°
2026-04-27 14:19 38.04726 59.37152 35833 ft 447 kts 292°
2026-04-27 14:19 38.07259 59.29935 35834 ft 448 kts 292°
2026-04-27 14:20 38.09791 59.22723 35833 ft 447 kts 292°
2026-04-27 14:20 38.12322 59.15501 35833 ft 448 kts 292°
2026-04-27 14:21 38.14851 59.08282 35831 ft 448 kts 292°
2026-04-27 14:21 38.17373 59.01043 35828 ft 448 kts 292°
2026-04-27 14:22 38.19890 58.93804 35833 ft 448 kts 292°
2026-04-27 14:22 38.22407 58.86558 35831 ft 448 kts 292°
2026-04-27 14:23 38.24498 58.80539 35827 ft 447 kts 291°
2026-04-27 14:23 38.27005 58.73290 35825 ft 448 kts 291°
2026-04-27 14:24 38.29899 58.64845 35824 ft 448 kts 291°
2026-04-27 14:24 38.31986 58.58752 35823 ft 448 kts 291°
2026-04-27 14:25 38.34483 58.51474 35835 ft 449 kts 291°
2026-04-27 14:25 38.36974 58.44194 35822 ft 448 kts 291°
2026-04-27 14:26 38.39461 58.36912 35823 ft 448 kts 291°
2026-04-27 14:26 38.41939 58.29626 35820 ft 448 kts 291°
2026-04-27 14:27 38.44408 58.22341 35824 ft 448 kts 291°
2026-04-27 14:27 38.46861 58.15090 35830 ft 448 kts 291°
2026-04-27 14:28 38.49345 58.07733 35839 ft 449 kts 291°
2026-04-27 14:28 38.51796 58.00463 35843 ft 449 kts 291°
2026-04-27 14:29 38.54253 57.93137 35846 ft 449 kts 291°
2026-04-27 14:29 38.56703 57.85802 35849 ft 449 kts 291°
2026-04-27 14:30 38.59156 57.78467 35844 ft 449 kts 291°
2026-04-27 14:30 38.61609 57.71135 35851 ft 449 kts 291°
2026-04-27 14:31 38.64052 57.63787 35848 ft 449 kts 290°
2026-04-27 14:31 38.66486 57.56439 35851 ft 448 kts 290°
2026-04-27 14:32 38.68915 57.49100 35849 ft 448 kts 290°
2026-04-27 14:32 38.71342 57.41742 35850 ft 448 kts 290°
2026-04-27 14:33 38.73765 57.34380 35850 ft 449 kts 290°
2026-04-27 14:33 38.76184 57.27010 35856 ft 449 kts 290°
2026-04-27 14:34 38.78599 57.19632 35856 ft 448 kts 290°
2026-04-27 14:34 38.81005 57.12266 35856 ft 448 kts 290°
2026-04-27 14:35 38.83408 57.04896 35855 ft 447 kts 290°
2026-04-27 14:35 38.85803 56.97533 35856 ft 447 kts 290°
2026-04-27 14:36 38.88182 56.90166 35854 ft 447 kts 290°
2026-04-27 14:36 38.90565 56.82794 35854 ft 447 kts 290°
2026-04-27 14:37 38.92945 56.75423 35848 ft 447 kts 290°
2026-04-27 14:37 38.95321 56.68050 35848 ft 446 kts 290°
2026-04-27 14:38 38.97671 56.60718 35852 ft 446 kts 290°
2026-04-27 14:38 39.00035 56.53337 35852 ft 446 kts 290°
2026-04-27 14:39 39.02403 56.45950 35852 ft 446 kts 290°
2026-04-27 14:39 39.04756 56.38560 35861 ft 446 kts 290°
2026-04-27 14:40 39.07093 56.31158 35865 ft 447 kts 290°
2026-04-27 14:40 39.09427 56.23752 35866 ft 446 kts 290°
2026-04-27 14:41 39.11763 56.16350 35862 ft 446 kts 290°
2026-04-27 14:41 39.14102 56.08942 35872 ft 447 kts 290°
2026-04-27 14:42 39.16427 56.01528 35868 ft 446 kts 290°
2026-04-27 14:42 39.18749 55.94122 35854 ft 445 kts 290°
2026-04-27 14:43 39.21062 55.86715 35852 ft 445 kts 290°
2026-04-27 14:43 39.23364 55.79307 35852 ft 445 kts 289°
2026-04-27 14:44 39.25668 55.71893 35850 ft 445 kts 289°
2026-04-27 14:44 39.27962 55.64481 35859 ft 445 kts 289°
2026-04-27 14:45 39.30252 55.57052 35862 ft 445 kts 289°
2026-04-27 14:45 39.32541 55.49631 35863 ft 445 kts 289°
2026-04-27 14:46 39.34808 55.42240 35866 ft 445 kts 289°
2026-04-27 14:46 39.37085 55.34795 35868 ft 445 kts 289°
2026-04-27 14:47 39.39362 55.27347 35867 ft 445 kts 289°
2026-04-27 14:47 39.41633 55.19900 35865 ft 445 kts 289°
2026-04-27 14:48 39.43899 55.12441 35867 ft 445 kts 289°
2026-04-27 14:48 39.47293 55.01249 35873 ft 446 kts 289°
2026-04-27 14:49 39.49548 54.93767 35881 ft 446 kts 289°
2026-04-27 14:49 39.51805 54.86272 35882 ft 446 kts 289°
2026-04-27 14:50 39.54055 54.78790 35868 ft 445 kts 289°
2026-04-27 14:50 39.56288 54.71302 35867 ft 446 kts 289°
2026-04-27 14:51 39.58523 54.63809 35882 ft 446 kts 289°
2026-04-27 14:51 39.60386 54.57578 35877 ft 446 kts 289°
2026-04-27 14:52 39.63001 54.48794 35896 ft 447 kts 289°
2026-04-27 14:52 39.65233 54.41261 35884 ft 447 kts 288°
2026-04-27 14:53 39.67447 54.33735 35879 ft 447 kts 288°
2026-04-27 14:53 39.69660 54.26192 35883 ft 447 kts 288°
2026-04-27 14:54 39.71873 54.18649 35892 ft 447 kts 288°
2026-04-27 14:54 39.74082 54.11092 35885 ft 447 kts 288°
2026-04-27 14:55 39.76295 54.03523 35893 ft 448 kts 288°
2026-04-27 14:55 39.78505 53.95950 35886 ft 449 kts 288°
2026-04-27 14:56 39.80695 53.88396 35892 ft 449 kts 288°
2026-04-27 14:56 39.82889 53.80799 35898 ft 449 kts 288°
2026-04-27 14:57 39.85084 53.73197 35900 ft 449 kts 288°
2026-04-27 14:57 39.87269 53.65580 35907 ft 449 kts 288°
2026-04-27 14:58 39.89454 53.57955 35911 ft 449 kts 287°
2026-04-27 14:58 39.91638 53.50327 35911 ft 449 kts 287°
2026-04-27 14:59 39.93822 53.42690 35913 ft 450 kts 287°
2026-04-27 14:59 39.95997 53.35052 35921 ft 450 kts 287°
2026-04-27 15:00 39.98161 53.27381 35916 ft 450 kts 287°
2026-04-27 15:00 40.00305 53.19774 35920 ft 450 kts 287°
2026-04-27 15:01 40.02468 53.12105 35926 ft 450 kts 287°
2026-04-27 15:01 40.04627 53.04423 35920 ft 451 kts 287°
2026-04-27 15:02 40.06780 52.96728 35920 ft 452 kts 287°
2026-04-27 15:02 40.08937 52.89020 35921 ft 452 kts 287°
2026-04-27 15:03 40.11078 52.81308 35924 ft 452 kts 287°
2026-04-27 15:03 40.13218 52.73591 35921 ft 452 kts 287°
2026-04-27 15:04 40.15360 52.65861 35923 ft 452 kts 287°
2026-04-27 15:04 40.17499 52.58120 35929 ft 452 kts 287°
2026-04-27 15:05 40.19631 52.50384 35927 ft 452 kts 287°
2026-04-27 15:05 40.21756 52.42643 35929 ft 452 kts 287°
2026-04-27 15:06 40.23872 52.34896 35931 ft 452 kts 286°
2026-04-27 15:06 40.25630 52.28442 35932 ft 452 kts 286°
2026-04-27 15:07 40.27734 52.20682 35938 ft 452 kts 286°
2026-04-27 15:07 40.29832 52.12917 35934 ft 452 kts 286°
2026-04-27 15:08 40.31926 52.05140 35938 ft 452 kts 286°
2026-04-27 15:08 40.34025 51.97370 35936 ft 452 kts 286°
2026-04-27 15:09 40.36121 51.89590 35940 ft 452 kts 286°
2026-04-27 15:09 40.38202 51.81802 35945 ft 453 kts 286°
2026-04-27 15:10 40.40282 51.74007 35936 ft 453 kts 286°
2026-04-27 15:10 40.42357 51.66200 35939 ft 453 kts 286°
2026-04-27 15:11 40.44421 51.58394 35942 ft 453 kts 285°
2026-04-27 15:11 40.46466 51.50625 35946 ft 453 kts 285°
2026-04-27 15:12 40.48248 51.42713 35953 ft 451 kts 281°
2026-04-27 15:12 40.49751 51.34705 35954 ft 451 kts 280°
2026-04-27 15:13 40.51229 51.26704 35960 ft 451 kts 281°
2026-04-27 15:13 40.52766 51.18713 35956 ft 451 kts 281°
2026-04-27 15:14 40.54337 51.10736 35952 ft 451 kts 281°
2026-04-27 15:14 40.55893 51.02749 35958 ft 450 kts 281°
2026-04-27 15:15 40.57430 50.94760 35961 ft 451 kts 281°
2026-04-27 15:15 40.58955 50.86770 35961 ft 451 kts 281°
2026-04-27 15:16 40.60479 50.78774 35968 ft 451 kts 281°
2026-04-27 15:16 40.62010 50.70756 35969 ft 451 kts 281°
2026-04-27 15:17 40.63520 50.62805 35963 ft 451 kts 281°
2026-04-27 15:17 40.65046 50.54733 35965 ft 451 kts 281°
2026-04-27 15:18 40.66478 50.47095 35969 ft 451 kts 281°
2026-04-27 15:18 40.67983 50.39060 35968 ft 451 kts 280°
2026-04-27 15:19 40.69477 50.31030 35970 ft 451 kts 280°
2026-04-27 15:19 40.70970 50.22984 35971 ft 451 kts 280°
2026-04-27 15:20 40.72460 50.14954 35975 ft 451 kts 280°
2026-04-27 15:20 40.73937 50.06910 35978 ft 451 kts 280°
2026-04-27 15:21 40.75409 49.98867 35988 ft 451 kts 280°
2026-04-27 15:21 40.76881 49.90812 35993 ft 451 kts 280°
2026-04-27 15:22 40.78351 49.82757 35997 ft 451 kts 280°
2026-04-27 15:22 40.79809 49.74708 36001 ft 451 kts 280°
2026-04-27 15:23 40.81260 49.66656 35990 ft 450 kts 279°
2026-04-27 15:23 40.82700 49.58619 35992 ft 450 kts 279°
2026-04-27 15:24 40.84135 49.50573 35990 ft 450 kts 279°
2026-04-27 15:24 40.85557 49.42574 35989 ft 450 kts 279°
2026-04-27 15:25 40.86999 49.34471 36000 ft 450 kts 279°
2026-04-27 15:25 40.88423 49.26419 36000 ft 450 kts 279°
2026-04-27 15:26 40.89831 49.18366 36002 ft 450 kts 279°
2026-04-27 15:26 40.91237 49.10304 36012 ft 450 kts 279°
2026-04-27 15:27 40.92630 49.02300 36013 ft 450 kts 279°
2026-04-27 15:27 40.94041 48.94181 36018 ft 450 kts 279°
2026-04-27 15:28 40.95430 48.86156 36023 ft 450 kts 279°
2026-04-27 15:28 40.96814 48.78071 36030 ft 451 kts 279°
2026-04-27 15:29 40.98199 48.69977 36035 ft 451 kts 279°
2026-04-27 15:29 40.99584 48.61870 36041 ft 452 kts 279°
2026-04-27 15:30 41.00958 48.53765 36027 ft 451 kts 279°
2026-04-27 15:30 41.02327 48.45667 36019 ft 450 kts 279°
2026-04-27 15:31 41.03683 48.37569 36016 ft 450 kts 279°
2026-04-27 15:31 41.05034 48.29462 36019 ft 451 kts 279°
2026-04-27 15:32 41.06383 48.21353 36015 ft 451 kts 279°
2026-04-27 15:32 41.07722 48.13281 36011 ft 451 kts 279°
2026-04-27 15:33 41.09064 48.05172 36016 ft 451 kts 279°
2026-04-27 15:33 41.10398 47.97038 36004 ft 451 kts 279°
2026-04-27 15:34 41.11726 47.88908 36007 ft 451 kts 279°
2026-04-27 15:34 41.13051 47.80763 36010 ft 452 kts 278°
2026-04-27 15:35 41.14376 47.72616 36007 ft 452 kts 278°
2026-04-27 15:35 41.15693 47.64462 36013 ft 452 kts 278°
2026-04-27 15:36 41.16989 47.56300 36014 ft 452 kts 278°
2026-04-27 15:36 41.18259 47.48337 35989 ft 425 kts 278°
2026-04-27 15:37 41.19454 47.40838 35994 ft 414 kts 278°
2026-04-27 15:37 41.20626 47.33378 35986 ft 412 kts 278°
2026-04-27 15:38 41.21792 47.25926 35863 ft 413 kts 278°
2026-04-27 15:38 41.22375 47.22188 35335 ft 412 kts 278°
2026-04-27 15:38 41.22956 47.18479 34847 ft 409 kts 278°
2026-04-27 15:39 41.23535 47.14800 34351 ft 406 kts 278°
2026-04-27 15:39 41.24109 47.11146 33854 ft 403 kts 278°
2026-04-27 15:39 41.24677 47.07512 33335 ft 400 kts 278°
2026-04-27 15:39 41.25237 47.03911 32850 ft 396 kts 278°
2026-04-27 15:40 41.25788 47.00345 32374 ft 392 kts 278°
2026-04-27 15:40 41.26332 46.96815 31907 ft 389 kts 278°
2026-04-27 15:40 41.26872 46.93302 31452 ft 386 kts 278°
2026-04-27 15:40 41.27408 46.89816 30987 ft 383 kts 278°
2026-04-27 15:41 41.27939 46.86370 30557 ft 380 kts 278°
2026-04-27 15:41 41.28465 46.82944 30113 ft 377 kts 278°
2026-04-27 15:41 41.28977 46.79578 29646 ft 374 kts 278°
2026-04-27 15:41 41.29489 46.76205 29230 ft 370 kts 278°
2026-04-27 15:42 41.30031 46.72873 28788 ft 367 kts 281°
2026-04-27 15:42 41.30679 46.69556 28347 ft 365 kts 283°
2026-04-27 15:42 41.31370 46.66325 27919 ft 362 kts 283°
2026-04-27 15:42 41.32074 46.63120 27487 ft 359 kts 283°
2026-04-27 15:43 41.32767 46.59942 27042 ft 356 kts 283°
2026-04-27 15:43 41.33436 46.56823 26610 ft 354 kts 283°
2026-04-27 15:43 41.34096 46.53680 26177 ft 352 kts 283°
2026-04-27 15:43 41.34741 46.50549 25716 ft 350 kts 283°
2026-04-27 15:44 41.35380 46.47420 25255 ft 349 kts 283°
2026-04-27 15:44 41.36015 46.44307 24780 ft 349 kts 283°
2026-04-27 15:44 41.36652 46.41185 24297 ft 348 kts 283°
2026-04-27 15:44 41.37285 46.38075 23813 ft 348 kts 283°
2026-04-27 15:45 41.37919 46.34962 23279 ft 348 kts 283°
2026-04-27 15:45 41.38552 46.31853 22779 ft 347 kts 283°
2026-04-27 15:45 41.39182 46.28765 22300 ft 345 kts 283°
2026-04-27 15:45 41.39808 46.25690 21823 ft 343 kts 283°
2026-04-27 15:46 41.40430 46.22630 21354 ft 341 kts 283°
2026-04-27 15:46 41.41048 46.19585 20888 ft 340 kts 283°
2026-04-27 15:46 41.41665 46.16547 20428 ft 339 kts 283°
2026-04-27 15:46 41.42279 46.13520 19973 ft 338 kts 284°
2026-04-27 15:47 41.42889 46.10501 19509 ft 338 kts 283°
2026-04-27 15:47 41.43499 46.07472 19038 ft 337 kts 283°
2026-04-27 15:47 41.44106 46.04457 18591 ft 337 kts 284°
2026-04-27 15:47 41.44710 46.01443 18120 ft 336 kts 284°
2026-04-27 15:48 41.45311 45.98439 17669 ft 334 kts 284°
2026-04-27 15:48 41.45900 45.95490 17211 ft 333 kts 284°
2026-04-27 15:48 41.46494 45.92519 16792 ft 331 kts 283°
2026-04-27 15:49 41.47677 45.86608 15874 ft 329 kts 284°
2026-04-27 15:49 41.48264 45.83669 15457 ft 328 kts 283°
2026-04-27 15:49 41.48849 45.80737 15025 ft 327 kts 284°
2026-04-27 15:49 41.49430 45.77813 14607 ft 326 kts 283°
2026-04-27 15:50 41.50006 45.74894 14229 ft 324 kts 284°
2026-04-27 15:50 41.50581 45.71987 13821 ft 323 kts 284°
2026-04-27 15:50 41.51152 45.69095 13385 ft 321 kts 284°
2026-04-27 15:50 41.51714 45.66255 12840 ft 311 kts 284°
2026-04-27 15:51 41.52257 45.63507 12411 ft 305 kts 284°
2026-04-27 15:51 41.52795 45.60780 11988 ft 304 kts 284°
2026-04-27 15:51 41.53331 45.58051 11569 ft 303 kts 284°
2026-04-27 15:51 41.53863 45.55338 11137 ft 302 kts 284°
2026-04-27 15:52 41.54328 45.52613 10734 ft 300 kts 276°
2026-04-27 15:52 41.54301 45.49848 10313 ft 298 kts 265°
2026-04-27 15:52 41.54110 45.47115 9931 ft 295 kts 265°
2026-04-27 15:52 41.53987 45.45325 9839 ft 288 kts 266°
2026-04-27 15:53 41.53811 45.42725 9638 ft 276 kts 266°
2026-04-27 15:53 41.53644 45.40203 9027 ft 269 kts 266°
2026-04-27 15:53 41.53481 45.37742 8371 ft 264 kts 266°
2026-04-27 15:53 41.53317 45.35331 7804 ft 257 kts 266°
2026-04-27 15:54 41.53159 45.32999 7360 ft 247 kts 266°
2026-04-27 15:54 41.53008 45.30778 7195 ft 236 kts 266°
2026-04-27 15:54 41.52864 45.28672 7054 ft 225 kts 266°
2026-04-27 15:54 41.52726 45.26619 6895 ft 219 kts 267°
2026-04-27 15:55 41.52591 45.24604 6776 ft 218 kts 267°
2026-04-27 15:55 41.52455 45.22572 6411 ft 221 kts 267°
2026-04-27 15:55 41.52319 45.20531 6052 ft 220 kts 268°
2026-04-27 15:55 41.52183 45.18511 5724 ft 218 kts 269°
2026-04-27 15:56 41.52047 45.16522 5519 ft 210 kts 269°
2026-04-27 15:56 41.52100 45.14648 5396 ft 198 kts 287°
2026-04-27 15:56 41.52691 45.13062 5211 ft 193 kts 308°
2026-04-27 15:56 41.53654 45.11802 4898 ft 194 kts 314°
2026-04-27 15:57 41.54636 45.10572 4613 ft 191 kts 315°
2026-04-27 15:57 41.55596 45.09367 4342 ft 188 kts 315°
2026-04-27 15:57 41.56541 45.08180 4084 ft 184 kts 315°
2026-04-27 15:57 41.57449 45.07037 3859 ft 178 kts 315°
2026-04-27 15:58 41.58330 45.05930 3628 ft 165 kts 315°
2026-04-27 15:58 41.59114 45.04944 3442 ft 150 kts 315°
2026-04-27 15:58 41.59838 45.04032 3228 ft 136 kts 316°
2026-04-27 15:58 41.60497 45.03202 3030 ft 125 kts 316°
2026-04-27 15:59 41.61121 45.02415 2891 ft 122 kts 316°
2026-04-27 15:59 41.61727 45.01653 2707 ft 122 kts 315°
2026-04-27 15:59 41.62346 45.00871 2514 ft 123 kts 314°
2026-04-27 15:59 41.62966 45.00092 2330 ft 121 kts 313°
2026-04-27 16:00 41.63581 44.99316 2145 ft 121 kts 312°
2026-04-27 16:00 41.64192 44.98544 1955 ft 121 kts 314°
2026-04-27 16:00 41.64799 44.97781 1824 ft 119 kts 314°
2026-04-27 16:00 41.65406 44.97016 1683 ft 120 kts 315°
2026-04-27 16:01 41.66008 44.96265 1552 ft 119 kts 313°
2026-04-27 16:01 41.66654 44.95452 2062 ft 134 kts 314°
2026-04-27 16:01 41.67309 44.94611 2801 ft 130 kts 314°
2026-04-27 16:01 41.67961 44.93727 3379 ft 141 kts 314°
2026-04-27 16:02 41.68662 44.92671 3686 ft 164 kts 304°
2026-04-27 16:02 41.68937 44.91084 4090 ft 191 kts 271°
2026-04-27 16:02 41.68318 44.89430 4743 ft 220 kts 231°
2026-04-27 16:02 41.66834 44.88623 5541 ft 247 kts 188°
2026-04-27 16:03 41.65141 44.89227 6396 ft 262 kts 148°
2026-04-27 16:03 41.63904 44.91019 6839 ft 267 kts 118°
2026-04-27 16:03 41.63192 44.93305 6979 ft 265 kts 107°
2026-04-27 16:03 41.62658 44.95678 7019 ft 266 kts 105°
2026-04-27 16:04 41.62115 44.98010 6891 ft 264 kts 108°
2026-04-27 16:04 41.61495 45.00309 6800 ft 262 kts 111°
2026-04-27 16:04 41.60802 45.02573 6799 ft 263 kts 114°
2026-04-27 16:04 41.60054 45.04813 6784 ft 262 kts 115°
2026-04-27 16:05 41.59287 45.06992 6505 ft 261 kts 116°
2026-04-27 16:05 41.58496 45.09172 6199 ft 259 kts 116°
2026-04-27 16:05 41.57706 45.11330 5861 ft 258 kts 116°
2026-04-27 16:05 41.56916 45.13479 5530 ft 258 kts 115°
2026-04-27 16:06 41.56147 45.15561 5467 ft 250 kts 116°
2026-04-27 16:06 41.55357 45.17692 5496 ft 257 kts 116°
2026-04-27 16:06 41.54564 45.19837 5505 ft 258 kts 116°
2026-04-27 16:06 41.53768 45.21993 5498 ft 259 kts 116°
2026-04-27 16:07 41.52794 45.23971 5368 ft 253 kts 143°
2026-04-27 16:07 41.51252 45.24877 5030 ft 236 kts 186°
2026-04-27 16:07 41.49784 45.24316 4665 ft 212 kts 229°
2026-04-27 16:07 41.49152 45.22757 4543 ft 187 kts 274°
2026-04-27 16:08 41.49621 45.21186 4498 ft 188 kts 317°
2026-04-27 16:08 41.50794 45.20388 4505 ft 195 kts 332°
2026-04-27 16:08 41.51883 45.19368 4431 ft 189 kts 308°
2026-04-27 16:08 41.52571 45.17880 4135 ft 188 kts 300°
2026-04-27 16:09 41.53201 45.16382 4009 ft 188 kts 300°
2026-04-27 16:09 41.54500 45.13293 4009 ft 191 kts 300°
2026-04-27 16:09 41.55142 45.11762 4008 ft 190 kts 300°
2026-04-27 16:10 41.56429 45.08685 4009 ft 190 kts 300°
2026-04-27 16:10 41.58206 45.06077 3636 ft 190 kts 316°
2026-04-27 16:11 41.59153 45.04892 3390 ft 181 kts 316°
2026-04-27 16:11 41.60854 45.02751 2948 ft 153 kts 317°
2026-04-27 16:12 41.62276 45.00962 2525 ft 127 kts 314°
2026-04-27 16:12 41.62915 45.00159 2329 ft 125 kts 313°
2026-04-27 16:12 41.64151 44.98607 2005 ft 119 kts 314°
2026-04-27 16:13 41.64743 44.97859 1828 ft 116 kts 313°
2026-04-27 16:13 41.65880 44.96422 1555 ft 110 kts 313°
2026-04-27 16:13 41.66333 44.95836 1525 ft 65 kts 317°
2026-04-27 16:14 41.66676 44.95406 1525 ft 22 kts 316°
2026-04-27 16:14 41.66847 44.95193 1523 ft 10 kts 320°
2026-04-27 16:15 41.66961 44.95275 1522 ft 1 kts 44°
2026-04-27 16:15 41.66962 44.95276 1522 ft 0 kts 44°
2026-04-27 16:16 41.67009 44.95338 1524 ft 14 kts 44°
2026-04-27 16:17 41.67202 44.95583 1524 ft 17 kts 43°
2026-04-27 16:17 41.67184 44.95735 1526 ft 13 kts 134°
2026-04-27 16:18 41.67042 44.95966 1525 ft 17 kts 130°
2026-04-27 16:18 41.66908 44.96162 1524 ft 8 kts 126°
2026-04-27 16:19 41.66916 44.96224 1522 ft 8 kts 52°
2026-04-27 16:19 41.66949 44.96265 1527 ft 0 kts 43°
2026-04-27 16:20 41.66955 44.96273 1519 ft 0 kts 43°